Flag for Germany Weather past 2 weeks in Sinsheim, Baden-Württemberg, Germany

Now
82 °F

Pleasantly warm.


Feels Like: 81 °F
Forecast: 63 / 94 °F
Wind: 3 mph from East

Location: Baden Wurttemberg - Neuostheim

Current Time: Jul 6, 2015 at 10:01:54 PM

Latest Report: Jul 6, 2015 at 9:20 PM


Visibility: N/A

Pressure: 30.07 "Hg

Humidity: 30%

Dew point: 48 °F

Location of SinsheimLocation

Historic Weather in Sinsheim — Graph

°F

Sinsheim temperature yesterday

Maximum temperature yesterday: 100 °F (at 3:50 PM)
Minimum temperature yesterday: 81 °F (at 7:50 AM)
Average temperature yesterday: 94 °F

Past Weeks' High & Low Weather Summary

 TemperatureHumidityPressure
High100 °F (Jul 4, 6:20 PM)100% (Jun 22, 5:50 AM)30.21 "Hg (Jun 22, 5:50 AM)
Low50 °F (Jun 23, 5:20 AM)24% (Jul 1, 2:50 PM)29.74 "Hg (Jun 22, 9:20 PM)
Average75 °F52%30.09 "Hg
* Reported Jun 21 8:20 PM — Jul 6 8:50 PM, Sinsheim, Weather by CustomWeather, © 2015

Note: Actual official high and low records may vary slightly from our data, if they occured in-between our weather recording intervals... More about our weather records

Advertising

Sinsheim weather history for previous 24 hours

 ConditionsComfort  
Time TempWeatherWind HumidityBarometerVisibility
8:50 PM
Mon, Jul 6
82 °FPassing clouds.5 mph28%30.07 "HgN/A
8:20 PM84 °FSunny.3 mph25%30.07 "Hg10 mi
7:50 PM84 °FSunny.3 mph25%30.07 "Hg10 mi
7:20 PM86 °FSunny.3 mph24%30.07 "Hg10 mi
6:50 PM86 °FPassing clouds.6 mph24%30.07 "HgN/A
6:20 PM86 °FSunny.3 mph25%30.07 "Hg10 mi
5:50 PM86 °FSunny.3 mph24%30.09 "Hg10 mi
5:20 PM84 °FSunny.3 mph25%30.09 "Hg10 mi
4:50 PM84 °FSunny.3 mph25%30.09 "Hg10 mi
4:20 PM84 °FPassing clouds.6 mph25%30.09 "HgN/A
3:50 PM84 °FPassing clouds.5 mph25%30.12 "HgN/A
3:20 PM84 °FPassing clouds.7 mph27%30.12 "HgN/A
2:50 PM82 °FSunny.5 mph28%30.12 "Hg10 mi
2:20 PM82 °FSunny.3 mph30%30.15 "Hg10 mi
1:50 PM81 °FPassing clouds.5 mph30%30.15 "HgN/A
1:20 PM79 °FSunny.5 mph34%30.15 "Hg10 mi
12:50 PM79 °FSunny.2 mph37%30.18 "Hg10 mi
12:20 PM77 °FPassing clouds.6 mph39%30.18 "HgN/A
11:50 AM77 °FPassing clouds.5 mph42%30.18 "HgN/A
11:20 AM77 °FSunny.2 mph44%30.18 "Hg10 mi
10:50 AM73 °FPassing clouds.7 mph44%30.21 "HgN/A
10:20 AM73 °FPassing clouds.6 mph50%30.21 "HgN/A
9:50 AM72 °FPassing clouds.5 mph57%30.21 "HgN/A
9:20 AM72 °FPassing clouds.7 mph53%30.21 "HgN/A
8:50 AM72 °FPassing clouds.6 mph53%30.21 "HgN/A
8:20 AM72 °FPassing clouds.5 mph61%30.21 "HgN/A
7:50 AM70 °FPassing clouds.3 mph64%30.18 "HgN/A
7:20 AM68 °FPassing clouds.3 mph69%30.18 "HgN/A
6:50 AM68 °FSunny.3 mph69%30.18 "Hg10 mi
6:20 AM68 °FPassing clouds.5 mph69%30.18 "HgN/A
5:50 AM66 °FPassing clouds.6 mph73%30.18 "HgN/A
5:20 AM68 °FPassing clouds.7 mph69%30.15 "HgN/A
Weather by CustomWeather, © 2015

See weather overviewHow to use our weather pages